{"data":{"norad_id":66349,"intl_designator":"2025-254B","name":"STARLINK-35848","alt_names":[],"object_type":"PAYLOAD","status":"ACTIVE","operator":null,"country":"US","launch_date":"2025-11-06","launch_site_code":"AFWTR","launch_vehicle":null,"mission":null,"orbit_class":"UNKNOWN","rcs_meters":null,"size_class":null,"mass_kg":null,"dimensions":null,"purposes":["comms"],"wikipedia_slug":null,"has_3d_model":false,"image_url":null,"decayed_at":null,"tle_current":{"epoch":"2026-09-20T15:55:15.987936Z","epoch_age_seconds":79326,"freshness":"FRESH","line1":"1 66349U 25254B   26263.66337949  .00018033  00000+0  59083-3 0  9994","line2":"2 66349  53.1601  45.6414 0002681  96.7013 263.4294 15.31733222 48846","mean_motion":15.31733222,"eccentricity":0.0002681,"inclination_deg":53.1601,"raan_deg":45.6414,"arg_perigee_deg":96.7013,"mean_anomaly_deg":263.4294,"bstar":0.00059083,"rev_number":4884,"period_min":94.011148894438,"perigee_km":468.8048065902,"apogee_km":472.47712133447,"semimajor_km":6848.7779639623,"source":"CELESTRAK","updated_at":"2026-09-21T09:00:35.879143Z"}}}